Weather observations for the past three days for
Mackall U. S. Army Airfield
Imperial (Metric)
Date Time (edt) Wind (mph) Vis. (mi.) Weather Sky Cond. Temperature (ºF) Relative Humidity Wind Chill (°F) Heat Index (°F) Pressure Precipitation (in)
Air Dwpt 6 hour altimeter (in) sea level (mb) 1 hr 3 hr 6 hr
Max. Min.
03 22:55 SW 7 10.00 Fair CLR 82.4 72.9 73% 88 30.02 1016.3
03 21:55 SW 7 10.00 Fair CLR 83.7 72.7 70% 90 30.01 1016.0
03 20:55 SW 8 10.00 Fair CLR 85.8 74.3 69% 94 29.99 1015.3
03 19:55 S 7 10.00 Fair CLR 88 74.7 98.4 88 65% 97 29.96 1014.3
03 18:55 S 9 10.00 Fair CLR 93.4 73.6 53% 103 29.96 1014.3
03 17:55 SW 5 10.00 A Few Clouds FEW055 95.4 71.8 47% 104 29.96 1014.3
03 16:55 S 5 10.00 Fair CLR 96.1 71.8 46% 105 29.96 1014.3
03 15:55 S 9 10.00 A Few Clouds FEW150 97.2 73.4 46% 108 29.97 1014.6
03 14:55 S 5 10.00 Fair CLR 96.6 74.3 49% 108 29.99 1015.3
03 13:55 NE 3 10.00 Fair CLR 96.6 71.6 97.7 77.2 44% 105 30.01 1016.0
03 12:55 Calm 10.00 Fair CLR 94.6 73.6 51% 105 30.02 1016.3
03 11:55 N 6 10.00 Fair CLR 93.2 75.6 57% 105 30.04 1017.0
03 10:55 NW 3 10.00 Fair CLR 89.8 74.5 61% 100 30.04 1017.0
03 09:55 NW 6 10.00 Fair CLR 87.4 73.8 64% 96 30.03 1016.7
03 08:55 NW 3 10.00 Fair CLR 84.6 74.1 71% 92 30.04 1017.0
03 07:55 Calm 10.00 Fair CLR 77 75 79.3 74.7 94% 78 30.05 1017.4
03 06:55 Calm 10.00 Fair CLR 74.8 73.6 96% 30.03 1016.7
03 05:55 Calm 10.00 Fair CLR 76.1 73.9 93% 76 30.02 1016.3
03 04:55 Calm 10.00 Fair CLR 76.8 74.8 94% 78 30.01 1016.0
03 03:55 Calm 10.00 Fair CLR 76.8 74.7 93% 78 30.01 1016.0
03 02:55 Calm 10.00 Fair CLR 78.4 75.2 90% 82 30 1015.6
03 01:55 S 3 10.00 Fair CLR 79.5 75.6 87.8 79.5 88% 84 30 1015.6
03 00:55 SW 3 10.00 Fair CLR 81.5 75.7 83% 88 30.01 1016.0
02 23:55 SW 7 10.00 Fair CLR 83.3 75.6 78% 91 30 1015.6
02 22:55 SW 7 10.00 Fair CLR 81.3 75.9 84% 88 30 1015.7
02 21:55 Calm 10.00 Fair CLR 82.9 78.6 87% 93 30.03 1016.7
02 20:55 Calm 10.00 A Few Clouds FEW065 85.5 77 76% 96 30 1015.7
02 19:55 Calm 10.00 Fair CLR 88 78.1 99.3 88 73% 102 29.99 1015.4
02 18:55 Calm 10.00 Partly Cloudy SCT065 92.7 76.1 59% 105 29.98 1015.0
02 17:55 S 5 10.00 Fair CLR 97.2 71.4 43% 106 29.98 1015.0
02 16:55 SE 5 10.00 Mostly Cloudy BKN060 98.4 70.5 41% 106 29.99 1015.3
02 15:55 Calm 10.00 A Few Clouds FEW065 96.1 70.5 44% 103 30 1015.6
02 14:55 NE 6 10.00 Fair CLR 96.8 71.8 45% 105 30.01 1016.0
02 13:55 Calm 10.00 A Few Clouds FEW100 97 72 97.3 75.9 45% 106 30.03 1016.7
02 12:55 Calm 10.00 Fair CLR 94.6 71.8 48% 103 30.04 1017.0
02 11:55 N 3 10.00 Fair CLR 92.1 74.1 56% 102 30.05 1017.4
02 10:55 N 3 10.00 Fair CLR 88 75.6 67% 98 30.05 1017.4
02 09:55 N 3 10.00 Fair CLR 84.4 74.7 73% 92 30.05 1017.4
02 08:55 NW 3 10.00 Fair CLR 81 75.2 83% 87 30.05 1017.4
02 07:55 Calm 9.00 NULL NULL 75.7 74.1 77.7 73 95% 75 30.06 1017.8
02 06:55 Calm 10.00 Fair CLR 73.2 72 96% 30.05 1017.4
02 05:55 Calm 9.00 Fair CLR 73.6 72.7 97% 30.05 1017.4
02 04:55 Calm 9.00 Fair CLR 73.9 73 97% 30.04 1017.0
02 03:55 Calm 10.00 Fair CLR 75.4 73.8 95% 74 30.03 1016.7
02 02:55 S 3 10.00 Fair CLR 76.6 74.5 93% 77 30.04 1017.0
02 01:55 Calm 10.00 Fair CLR 77.5 75 82 76.3 92% 79 30.04 1017.0
02 00:55 Calm 10.00 Fair CLR 77.7 74.8 91% 80 30.03 1016.7
01 23:55 Calm 10.00 Fair CLR 77 74.8 93% 78 30.02 1016.4
01 22:55 Calm 10.00 Fair CLR 77.7 76.1 95% 80 30.02 1016.4
01 20:55 Calm 10.00 Fair CLR 79 76.5 92% 83 29.99 1015.4
01 19:55 S 3 10.00 Mostly Cloudy SCT065 BKN080 82.4 74.3 95.5 82.4 77% 89 30 1015.8
01 18:55 W 10 10.00 Overcast OVC065 88.2 69.8 55% 93 30.01 1016.1
01 16:55 S 5 10.00 Partly Cloudy SCT100 93.6 68.9 45% 99 30 1015.7
01 15:55 SW 5 10.00 A Few Clouds FEW095 93.2 69.3 46% 99 30.01 1016.0
01 14:55 NE 3 10.00 Partly Cloudy FEW060 SCT085 94.5 67.8 42% 99 30.02 1016.3
01 13:55 NW 3 10.00 Fair CLR 94.6 67.3 95.2 75 41% 99 30.03 1016.7
01 12:55 Calm 10.00 Fair CLR 92.1 69.4 48% 97 30.05 1017.4
01 11:55 N 5 10.00 Fair CLR 91.9 71.1 51% 99 30.07 1018.0
01 10:55 NW 3 10.00 Fair CLR 90 73.6 59% 99 30.08 1018.4
01 09:55 NW 3 10.00 Fair CLR 85.5 74.1 69% 93 30.08 1018.4
01 08:55 NW 5 10.00 Fair CLR 81.7 75.2 81% 88 30.08 1018.4
01 07:55 Calm 10.00 Fair CLR 74.8 73.9 76.8 72.3 97% 30.07 1018.1
01 06:55 Calm 5.00 Fog/Mist BKN001 72.3 71.6 98% 30.05 1017.4
01 05:55 Calm 10.00 Fair CLR 73.4 72.1 96% 30.05 1017.4
01 04:55 Calm 10.00 Partly Cloudy SCT070 73.8 72.9 97% 30.06 1017.7
01 03:55 Calm 10.00 Fair CLR 74.5 73.2 96% 30.06 1017.7
01 02:55 Calm 10.00 Fair CLR 75.9 73.8 93% 76 30.06 1017.7
01 01:55 Calm 10.00 Fair CLR 77 74.1 84 76.6 91% 78 30.07 1018.0
01 00:55 SW 6 10.00 Fair CLR 77.7 74.1 89% 80 30.07 1018.1
31 23:55 SW 7 10.00 Fair CLR 78.8 74.1 86% 82 30.07 1018.0
Date Time (edt) Wind (mph) Vis. (mi.) Weather Sky Cond. Air Dwpt Max. Min. Relative Humidity Wind Chill (°F) Heat Index (°F) altimeter (in) sea level (mb) 1 hr 3 hr 6 hr
6 hour
Temperature (ºF) Pressure Precipitation (in)